Other Surface Observations
Issued by NWS

Home | Current Version | Previous Version | Text Only | Print | Product List | Glossary On
Versions: 1 2 3 4 5 6 7 8 9 10 11 12 13 14 15 16 17 18 19 20 21 22 23 24 25 26 27 28 29 30 31 32 33 34 35 36 37 38 39 40 41 42 43 44 45 46 47 48 49 50
000
SXUS52 KTAE 202006
OSOTAE
OSOTAE
North Florida/South Alabama/Southwest Georgia Weather Roundup
National Weather Service Tallahassee Florida
300 PM EST MON NOV 20 2017

Note: "fair" indicates few or no clouds below 12,000 feet with no
significant weather and/or obstructions to visibility.

!FLZ017-115-028-034-025-202100
...North Florida...

CITY           SKY/WX    TMP DP  RH WIND       PRES   REMARKS
TALLAHASSEE    PTSUNNY   66  34  30 VRB3      30.13F
APALACHICOLA   SUNNY     63  45  51 VRB6      30.14F
PERRY          SUNNY     71  45  39 SE8       30.13S
CROSS CITY     SUNNY     72  52  49 E7        30.15F
JACKSONVILLE   PTSUNNY   70  56  61 NE12      30.14F
$$

!FLZ112-006-005-002-011-202100
...Florida Panhandle...

CITY           SKY/WX    TMP DP  RH WIND       PRES   REMARKS
MARIANNA       MOSUNNY   64  33  31 NE8       30.14F
BONIFAY        NOT AVBL
PANAMA CITY NW FAIR      62  35  36 SE3       30.14F
TYNDALL AFB    MOSUNNY   62  36  38 CALM      30.14F
TYND DRONE APT FAIR      62  37  39 E6        30.14F
DE FUNIAK SPR  FAIR      58  33  39 CALM      30.16F
EGLIN AFB      PTSUNNY   58  33  39 SE6       30.14F
DESTIN         SUNNY     59  37  44 NE7       30.14F
HURLBURT       NOT AVBL
CRESTVIEW      MOSUNNY   60  33  36 CALM      30.16F
PENSACOLA      MOSUNNY   57  39  51 E3        30.15F
$$

!ALZ063-066-202100
...South Alabama...

CITY           SKY/WX    TMP DP  RH WIND       PRES   REMARKS
DOTHAN         SUNNY     63  32  31 VRB3      30.17F
OZARK CAIRNS   SUNNY     63  34  34 CALM      30.14S
FT RUCKER HELI MOSUNNY   62  37  40 CALM      30.14S
RUCKER HELI 3    N/A     60  37  42 CALM      30.14F
RUCKER HELI 2  FAIR      61  34  35 S3        30.14F
FLORALA APT    MOSUNNY   59  34  39 SE5       30.17F
ANDALUSIA      MOSUNNY   63  38  39 NE3       30.14F
TROY           SUNNY     64  34  32 CALM      30.14F
EUFALA         FAIR      65  36  34 SE5       30.14F
MOBILE         PTSUNNY   57  30  35 VRB3      30.16F
$$

!GAZ120>161-202100
...Southwest and South Central Georgia...

CITY           SKY/WX    TMP DP  RH WIND       PRES   REMARKS
THOMASVILLE    FAIR      68  41  37 E5        30.15F
BAINBRIDGE     SUNNY     68  39  34 E3        30.15S
MOODY AFB      SUNNY     68  47  46 SE10G18   30.13F
VALDOSTA       SUNNY     68  48  48 VRB7      30.14F
MOULTRIE       SUNNY     68  43  40 SE6       30.15F
BLAKELY        SUNNY     66  32  28 SE6       30.15F
ALBANY         PTSUNNY   64  34  32 E7        30.13F
TIFTON         FAIR      64  42  43 E5        30.15F
FITZGERALD     FAIR      64  38  38 SE6       30.19S
CORDELE        FAIR      65  32  29 E7        30.19S
AMERICUS       FAIR      61  28  29 E8        30.19F
HOMERVILLE     FAIR      68  50  52 SE6       30.15F
$$

!GMZ750-755-770-775-202100
...Coastal and Buoy Obs...

STATION/POSITION TIME  TEMP    WIND        PRES    VSBY  WAVE
                       AIR SEA DIR/SP/G                  HT/PER
                 (UTC) (F)     (DEG/KT/KT) (MB)    (MI)  (FT/S)
KEATON BEACH     2000   69      60/  3/  6 1019.5F
CEDAR KEY        1900   67      80/  8/  9 1019.7F
C TOWER          2000   61      80/  9/ 11 1020.6F
APALACHICOLA BUO 1850   65 75   90/ 10/ 14 1019.3          5/ 6
PANAMA CITY BUOY 1850   63 77   70/ 10/ 14 1020.1          4/ 5
MOBILE BUOY      1950   64 79   60/  4/  8 1020.3F         3/ 6
ORANGE BCH AL BU NOT AVBL
$$




USA.gov is the U.S. government's official web portal to all federal, state and local government web resources and services.